Showing default

COSMOS 1999, 19790

Orbit data source: Space-Track

COSMOS 1999, 19790 is a payload satellite owned by UNKS (CIS) in LEO that was launched on Fri, 10 Feb 1989 UTC via a TSIKLON-3 launch vehicle from the Plesetsk Missile And Space Complex (PKMTR). Payload-class satellites include a variety of spacecraft equipped with specific instruments for various scientific and technological missions. These include communications satellites like Starlink; space stations such as the ISS; scientific satellites like the Hubble; Earth observation satellites from companies like Planet Labs, Umbra, and HawkEye 360; GPS; miniature CubeSats for education and research; and military/defense satellites.

Loading next visibility...
Identifier
19790, 1989-009F
Orbit
LEO
Country
Flag of CISCIS
Related business
Manufacturer
NPO PM
Mission
Defense Communications
Bus & Motor
STRELA-3, Unknown motor
Mass
225 kg wet, 225 kg dry
Launch date (UTC)
1989-02-10 (37 years ago)
Launch vehicle
TSIKLON-3
Launch site
Plesetsk Missile And Space Complex (PKMTR)
Object type
Payload
Rocket body
Debris
Shape & HBR
Cyl, 0.8 m
Radar Cross Section
1.257 m², Medium (>0.1 m² and < 1m²)

Expand to show TLE details & history
Last TLE update: 15 hours ago

TLE from 15 hours ago
0 COSMOS 1999
1 19790U 89009F   25258.75419637  .00000012  00000-0  80197-5 0  9999
2 19790  82.6198 142.0364 0020054 126.7239 293.7496 12.65740146690532
Epoch: 2025-09-15T18:06Z
TLE epoch observation values (Epoch: 2025-09-15T18:06:02.566Z)
Latitude
59.53116°
Longitude
-111.77383°
Altitude
1,403.145 km
Speed
7.167 km/s
True Right ascension
10h 18m 45s
True Declination
59° 23' 35"
Sunlit
Object was in daylight at epoch
Visualization orbit readout
Latitude
Unknown
Longitude
Unknown
Altitude
Unknown
Speed
Unknown
Apparent Right ascension
Unknown
Apparent Declination
Unknown
Sunlit
N/A
Visualization observer readout
Local Sidereal Time
02:02:02
Azimuth
Unknown
Elevation
Unknown
Doppler factor
Unknown
Orbital elements
Apogee altitude
1,412.247 km
Perigee altitude
1,381.064 km
Semi-major axis
7,774.792 km
Eccentricity
0.00201
Inclination
82.6198°
RAAN
142.0364°
Arg. of periapsis
126.7239°
True anomaly
293.53905°
Mean anomaly
293.7496°
Eccentric anomaly
293.64434°
Mean motion
3.16599 °/min
Orbital period
113.71 mins
BSTAR
0.0000080197
Loading maneuver chart data...
Computing Atmospheric mass density...
Loading historical data...
Loading historical data...
Loading historical data...
Loading historical data...
Loading historical data...
Loading historical data...
Loading historical data...

Documentation

Showing up to 5 results
|